Stations météo

réclame
Mon MeteoGroup
Socoa, France (7600): Température de l'air & dewpoint: 22.02.2020 20:00:00 - 28.02.2020 20:00:00 (CET)Socoa, France (7600): Vitesse du vent & gusts: 22.02.2020 20:00:00 - 28.02.2020 20:00:00 (CET)Socoa, France (7600): Direction du vent: 22.02.2020 20:00:00 - 28.02.2020 20:00:00 (CET)Socoa, France (7600): reduced air pressure: 22.02.2020 20:00:00 - 28.02.2020 20:00:00 (CET)Socoa, France (7600): visibility: 22.02.2020 20:00:00 - 28.02.2020 20:00:00 (CET)Socoa, France (7600): Quantités de précipitations: 22.02.2020 20:00:00 - 28.02.2020 20:00:00 (CET)
Date & Time tt [°C] td [°C] ff [km/h] ff [knt] fx [km/h] fx [knt] dd ppp [hPa] vv [km] rr [mm]
28.02.2020 20:00:00 14,4 7,2 16 8 24 13 ESE 1013,8 - 0,0
28.02.2020 19:00:00 14,9 7,4 15 8 23 13 E 1014,2 - 0,0
28.02.2020 18:00:00 14,8 11,0 15 8 21 12 ENE 1014,9 - 0,0
28.02.2020 17:00:00 15,7 10,7 9 5 17 9 NE 1015,9 - 0,0
28.02.2020 16:00:00 15,8 10,3 9 5 14 8 NE 1017,2 12 0,0
28.02.2020 15:00:00 15,9 10,0 9 5 16 8 NNE 1018,5 - 0,0
28.02.2020 14:00:00 17,5 10,8 9 5 14 8 NNE 1019,5 - 0,0
28.02.2020 13:00:00 16,1 11,5 9 5 13 7 N 1020,6 12 0,0
28.02.2020 12:00:00 17,2 11,5 7 4 16 9 W 1021,3 - 0,0
28.02.2020 11:00:00 15,5 10,9 5 3 12 6 WSW 1022,0 - 0,0
28.02.2020 10:00:00 12,9 9,7 10 6 12 7 S 1022,4 - 0,0
28.02.2020 09:00:00 12,0 9,9 10 5 11 6 S 1022,6 - 0,0
28.02.2020 08:00:00 11,7 9,1 8 4 15 8 S 1022,5 - 0,0
28.02.2020 07:00:00 12,5 9,1 10 6 22 12 SSW 1022,4 - 0,0
28.02.2020 06:00:00 12,9 9,5 17 9 32 17 SW 1022,4 - 0,0
28.02.2020 05:00:00 13,0 10,2 18 10 39 21 WSW 1022,2 - 0,0
28.02.2020 04:00:00 12,9 10,8 27 14 40 21 WSW 1022,3 18 0,0
28.02.2020 03:00:00 12,5 11,6 22 12 41 22 WSW 1022,2 - 0,0
28.02.2020 02:00:00 12,6 12,1 30 16 48 26 W 1022,4 - 1,2
28.02.2020 01:00:00 12,7 12,2 29 16 46 25 W 1022,4 - 0,6
28.02.2020 00:00:00 12,7 12,2 30 16 41 22 W 1022,5 - 1,2
27.02.2020 23:00:00 12,4 11,8 25 13 49 26 WNW 1022,6 - 1,6
27.02.2020 22:00:00 12,8 12,0 36 19 53 29 W 1022,2 - 0,2
27.02.2020 21:00:00 12,8 12,0 37 20 55 30 W 1022,0 - 0,8
27.02.2020 20:00:00 12,8 12,0 35 19 59 32 W 1021,7 - 2,0
27.02.2020 19:00:00 12,8 11,7 39 21 58 31 W 1020,9 5 2,5
27.02.2020 18:00:00 12,7 11,3 36 19 59 32 W 1020,2 - 0,4
27.02.2020 17:00:00 12,0 10,9 34 18 51 28 WSW 1019,7 - 3,2
27.02.2020 16:00:00 11,4 10,5 29 16 54 29 SW 1019,4 3,0 4,8
27.02.2020 15:00:00 11,2 9,9 31 17 51 28 SSW 1018,7 - 3,9
27.02.2020 14:00:00 11,8 10,0 30 16 79 42 SW 1018,7 - 1,6
27.02.2020 13:00:00 12,5 9,0 39 21 72 39 W 1018,6 - 1,4
27.02.2020 12:00:00 13,8 7,3 40 22 92 50 W 1017,4 - 0,2
27.02.2020 11:00:00 15,9 3,0 29 16 50 27 SW 1015,9 - 0,0
27.02.2020 10:00:00 15,3 2,8 31 17 53 29 SW 1015,5 - 0,0
27.02.2020 09:00:00 14,7 2,9 29 16 54 29 SW 1014,5 - 0,0
27.02.2020 08:00:00 14,1 3,5 31 17 48 26 SW 1013,5 - 0,0
27.02.2020 07:00:00 12,8 4,7 26 14 41 22 SW 1013,6 18 0,0
27.02.2020 06:00:00 12,0 5,2 21 11 40 22 SSW 1013,7 - 0,0
27.02.2020 05:00:00 10,2 5,6 23 12 36 20 S 1014,2 - 0,2
27.02.2020 04:00:00 9,6 5,6 11 6 17 9 S 1015,6 - 0,2
27.02.2020 03:00:00 9,3 5,7 7 4 16 9 S 1017,3 - 0,0
27.02.2020 02:00:00 9,7 5,5 13 7 23 12 SSW 1018,5 - 0,0
27.02.2020 01:00:00 9,5 5,9 14 7 22 12 S 1019,6 - 0,0
27.02.2020 00:00:00 9,4 6,3 15 8 26 14 SW 1020,7 - 0,2
26.02.2020 23:00:00 9,3 6,2 17 9 26 14 SW 1021,7 - 0,2
26.02.2020 22:00:00 9,4 6,3 16 9 28 15 SW 1022,0 - 0,0
26.02.2020 21:00:00 9,2 6,6 19 10 29 16 SW 1022,1 - 0,0
26.02.2020 20:00:00 9,5 6,2 18 10 42 23 SSW 1022,8 - 0,0
26.02.2020 19:00:00 10,8 6,9 31 17 49 26 W 1022,6 12 0,0
26.02.2020 18:00:00 10,7 7,6 35 19 61 33 W 1022,6 - 0,8
26.02.2020 17:00:00 10,9 6,6 39 21 52 28 WNW 1022,3 - 0,0
26.02.2020 16:00:00 11,7 6,4 35 19 47 26 W 1022,1 18 0,0
26.02.2020 15:00:00 11,3 6,6 34 18 52 28 WNW 1022,3 - 0,2
26.02.2020 14:00:00 11,2 6,7 40 22 53 28 WNW 1022,8 - 0,2
26.02.2020 13:00:00 11,6 6,1 37 20 63 34 WNW 1023,2 - 0,0
26.02.2020 12:00:00 11,4 6,1 47 25 67 36 WNW 1023,2 - 0,0
26.02.2020 11:00:00 11,4 7,3 42 23 88 48 WNW 1022,9 - 2,0
26.02.2020 10:00:00 11,1 6,8 46 25 85 46 WNW 1022,0 15 0,6
26.02.2020 09:00:00 11,2 6,7 46 25 71 38 WNW 1021,0 - 0,2
26.02.2020 08:00:00 11,3 6,4 52 28 93 50 WNW 1020,2 - 0,2
26.02.2020 07:00:00 11,4 5,3 61 33 83 45 WNW 1020,2 18 0,0
26.02.2020 06:00:00 11,0 7,9 54 29 85 46 W 1019,9 - 1,6
26.02.2020 05:00:00 10,8 8,4 55 30 81 44 W 1019,7 - 0,4
26.02.2020 04:00:00 10,7 8,8 48 26 72 39 W 1020,2 5 3,7
26.02.2020 03:00:00 10,3 8,6 50 27 74 40 W 1020,5 - 2,4
26.02.2020 02:00:00 10,6 8,7 38 21 72 39 W 1020,6 - 0,4
26.02.2020 01:00:00 10,3 8,7 42 23 66 36 W 1020,8 - 1,6
26.02.2020 00:00:00 10,3 8,2 35 19 70 38 WSW 1021,1 - 1,8
25.02.2020 23:00:00 10,1 6,8 27 15 50 27 WSW 1021,0 - 0,2
25.02.2020 22:00:00 10,2 7,4 26 14 49 26 SW 1021,1 16 0,0
25.02.2020 21:00:00 11,3 7,8 36 20 63 34 W 1021,1 - 0,0
25.02.2020 20:00:00 11,1 9,7 32 17 66 35 W 1021,3 - 0,8
25.02.2020 19:00:00 10,8 9,2 34 18 56 30 W 1020,6 - 0,2
25.02.2020 18:00:00 11,3 10,2 41 22 67 36 W 1020,0 - 0,8
25.02.2020 17:00:00 11,9 10,6 30 16 59 32 W 1019,2 - 1,0
25.02.2020 16:00:00 12,7 11,3 40 21 54 29 W 1018,5 15 0,2
25.02.2020 15:00:00 12,7 11,1 21 11 36 19 WSW 1018,7 - 0,0
25.02.2020 14:00:00 12,4 10,8 22 12 39 21 WSW 1019,2 - 0,0
25.02.2020 13:00:00 12,1 10,8 15 8 27 15 WSW 1019,9 2,0 1,8
25.02.2020 12:00:00 11,7 10,1 14 7 31 17 SW 1019,9 - 1,0
25.02.2020 11:00:00 12,4 9,4 26 14 41 22 WSW 1020,1 - 0,0
25.02.2020 10:00:00 11,9 8,2 16 9 38 21 SW 1020,5 14 0,0
25.02.2020 09:00:00 11,4 7,3 18 10 26 14 SSW 1020,6 - 0,0
25.02.2020 08:00:00 11,0 7,7 16 8 30 16 WSW 1020,6 - 0,4
25.02.2020 07:00:00 11,7 6,6 15 8 30 16 SSW 1020,6 - 0,0
25.02.2020 06:00:00 10,7 6,6 14 8 29 16 SSW 1021,0 - 0,0
25.02.2020 05:00:00 10,8 6,7 15 8 26 14 SSW 1021,4 - 0,0
25.02.2020 04:00:00 10,7 7,2 15 8 24 13 SSW 1021,6 15 0,0
25.02.2020 03:00:00 10,7 7,0 10 6 21 11 SSW 1022,1 - 0,0
25.02.2020 02:00:00 10,8 7,5 9 5 22 12 W 1022,4 - 0,0
25.02.2020 01:00:00 10,6 6,9 7 4 16 8 SSW 1022,9 12 0,0
25.02.2020 00:00:00 10,7 7,2 11 6 16 8 SW 1023,5 - 0,0
24.02.2020 23:00:00 10,8 7,5 9 5 18 10 SSW 1024,3 - 0,0
24.02.2020 22:00:00 10,8 8,0 10 5 27 15 SW 1025,3 12 0,0
24.02.2020 21:00:00 10,7 8,3 21 11 35 19 W 1025,2 - 0,0
24.02.2020 20:00:00 10,8 9,2 26 14 34 18 WNW 1025,1 - 0,0
24.02.2020 19:00:00 10,4 8,3 18 10 30 16 WNW 1024,4 13 0,0
24.02.2020 18:00:00 11,5 8,7 21 11 31 17 WNW 1023,9 - 0,0
24.02.2020 17:00:00 12,1 8,6 23 12 35 19 W 1024,1 - 0,0
24.02.2020 16:00:00 11,7 8,7 26 14 37 20 WNW 1025,4 - 0,0
24.02.2020 15:00:00 11,5 7,6 22 12 30 16 WNW 1025,7 - 0,0
24.02.2020 14:00:00 13,7 8,5 6 4 17 9 WNW 1025,8 - 0,0
24.02.2020 13:00:00 11,5 7,4 8 5 15 8 N 1026,4 10 0,0
24.02.2020 12:00:00 10,3 6,6 5 3 12 7 NNE 1026,8 - 0,0
24.02.2020 11:00:00 7,9 5,7 6 3 16 9 SE 1027,6 - 0,0
24.02.2020 10:00:00 6,0 5,0 11 6 15 8 ESE 1028,5 0,8 0,0
24.02.2020 09:00:00 5,6 4,6 8 4 18 10 ESE 1028,8 - 0,0
24.02.2020 08:00:00 6,3 5,3 11 6 20 11 ESE 1028,8 - 0,0
24.02.2020 07:00:00 7,1 5,9 7 4 19 11 SE 1029,5 5 0,0
24.02.2020 06:00:00 7,7 6,3 9 5 16 9 ESE 1029,9 - 0,0
24.02.2020 05:00:00 8,4 7,0 9 5 18 10 E 1029,9 - 0,0
24.02.2020 04:00:00 8,6 7,1 11 6 17 9 SE 1030,6 6 0,0
24.02.2020 03:00:00 9,0 7,4 7 4 19 10 ENE 1031,4 - 0,0
24.02.2020 02:00:00 9,3 7,6 6 3 16 8 E 1031,9 - 0,0
24.02.2020 01:00:00 9,6 7,7 8 4 15 8 ESE 1032,8 6 0,0
24.02.2020 00:00:00 10,1 8,0 8 4 13 7 S 1033,3 - 0,0
23.02.2020 23:00:00 10,5 8,3 3 2 10 5 SW 1033,9 - 0,0
23.02.2020 22:00:00 10,6 8,2 3 2 6 3 SW 1034,3 11 0,0
23.02.2020 21:00:00 10,7 8,1 4 2 9 5 SSW 1034,2 - 0,0
23.02.2020 20:00:00 11,1 8,7 5 3 13 7 N 1034,4 - 0,0
23.02.2020 19:00:00 11,3 9,0 5 3 11 6 NNW 1033,9 15 0,0
23.02.2020 18:00:00 12,4 9,2 6 4 19 10 NNW 1033,9 - 0,0
23.02.2020 17:00:00 12,7 9,0 11 6 21 12 N 1033,8 - 0,0
23.02.2020 16:00:00 12,6 9,1 9 5 15 8 N 1033,5 8 0,0
23.02.2020 15:00:00 11,4 8,4 4 2 16 8 N 1033,4 - 0,0
23.02.2020 14:00:00 11,5 8,5 6 4 16 9 NNE 1034,2 - 0,0
23.02.2020 13:00:00 10,7 7,8 10 6 16 9 N 1035,0 4,9 0,0
23.02.2020 12:00:00 10,5 7,9 12 6 17 9 N 1035,2 - 0,0
23.02.2020 11:00:00 9,8 9,0 5 3 11 6 E 1034,8 - 0,0
23.02.2020 10:00:00 8,3 7,7 4 2 15 8 E 1035,1 0,9 0,0
23.02.2020 09:00:00 7,5 6,9 7 4 11 6 NNE 1034,7 - 0,0
23.02.2020 08:00:00 6,5 5,8 7 4 26 14 SSE 1034,0 - 0,0
23.02.2020 07:00:00 5,6 4,6 12 7 19 10 SE 1034,1 8 0,0
23.02.2020 06:00:00 6,0 4,8 9 5 13 7 ESE 1033,8 - 0,0
23.02.2020 05:00:00 6,9 5,5 9 5 13 7 SE 1033,5 - 0,0
23.02.2020 04:00:00 8,2 6,5 9 5 16 9 ESE 1033,9 18 0,0
23.02.2020 03:00:00 9,1 7,0 10 5 16 9 S 1034,2 - 0,0
23.02.2020 02:00:00 10,7 8,3 10 5 16 9 S 1035,0 - 0,0
23.02.2020 01:00:00 11,4 9,3 8 4 10 6 S 1035,5 10 0,0
23.02.2020 00:00:00 11,8 9,7 7 4 16 8 SSW 1036,0 - 0,0
22.02.2020 23:00:00 11,9 9,8 11 6 23 13 WNW 1036,6 - 0,0
22.02.2020 22:00:00 11,9 10,1 13 7 22 12 WNW 1036,5 10 0,0
22.02.2020 21:00:00 12,0 10,7 17 9 26 14 NW 1036,2 - 0,0
22.02.2020 20:00:00 11,7 10,1 7 4 21 11 W 1035,3 - 0,0

tt = Température de l'air
td = dewpoint
ff = Vitesse du vent
fx = gusts
dd = Direction du vent
ppp = reduced air pressure
vv = visibility
rr = Quantités de précipitations

stations d'obs. à proximité